Weather History for Alliance, NE

Change the Weather History Date:

Friday, March 1, 2013

  Actual Average Record
Temperature  
Mean Temperature 32 °F 31 °F  
Max Temperature 46 °F 46 °F 72 °F (2008)
Min Temperature 17 °F 17 °F -14 °F (2002)
Degree Days  
Heating Degree Days 33 34  
Month to date heating degree days 33 34  
Since 1 July heating degree days 5146 5438  
Cooling Degree Days 0 0  
Month to date cooling degree days 0 0  
Year to date cooling degree days 0 0  
Moisture  
Dew Point 21 °F    
Average Humidity 61    
Maximum Humidity 91    
Minimum Humidity 31    
Precipitation  
Precipitation 0.00 in 0.01 in 0.22 in (1953)
Month to date precipitation 0.00 0.01  
Year to date precipitation 0.52 0.57  
Sea Level Pressure  
Sea Level Pressure 30.28 in    
Wind  
Wind Speed 9 mph (NW)    
Max Wind Speed 22 mph    
Max Gust Speed 28 mph    
Visibility 10 miles    
Events      
T = Trace of Precipitation, MM = Missing Value Source: NWS Daily Summary

Daily Weather History Graph

Daily Weather History Graph

Search for Another Location

Airport:

Trip Planner

Search our weather history database for the weather conditions in past years. The results will help you decide how hot, cold, wet, or windy it might be!

Date:

Astronomy

Mar. 01, 2013 Rise Set
Actual Time 6:25 AM MST 5:41 PM MST
Civil Twilight 5:57 AM MST 6:09 PM MST
Nautical Twilight 5:25 AM MST 6:42 PM MST
Astronomical Twilight 4:53 AM MST 7:14 PM MST
Moon 10:23 PM MST (3/1) 8:08 AM MST (3/1)
Length of Visible Light 12h 11m
Length of Day
11h 15m
Waning Gibbous, 83% of the Moon is Illuminated
Mar 1
Waning Gibbous
Mar 4
Last Quarter
Mar 11
New
Mar 19
First Quarter
Mar 27
Full

Hourly Weather History & Observations

Time (MST) Temp. Windchill Dew Point Humidity Pressure Visibility Wind Dir Wind Speed Gust Speed Precip Events Conditions
12:53 AM 24.1 °F 16.0 °F 19.9 °F 84% 30.27 in 10.0 mi NW 6.9 mph - N/A   Clear
1:53 AM 25.0 °F 16.3 °F 21.0 °F 85% 30.25 in 10.0 mi NW 8.1 mph - N/A   Clear
2:53 AM 19.9 °F 10.1 °F 17.1 °F 89% 30.27 in 10.0 mi West 8.1 mph - N/A   Clear
3:53 AM 24.1 °F 13.1 °F 21.0 °F 88% 30.27 in 10.0 mi WNW 11.5 mph - N/A   Clear
4:53 AM 19.4 °F 10.4 °F 17.6 °F 93% 30.22 in 10.0 mi West 6.9 mph - N/A   Scattered Clouds
5:53 AM 19.0 °F 10.0 °F 16.0 °F 88% 30.31 in 10.0 mi WNW 6.9 mph - N/A   Clear
6:53 AM 19.0 °F 10.0 °F 16.0 °F 88% 30.33 in 10.0 mi West 6.9 mph - N/A   Clear
7:53 AM 28.4 °F 20.4 °F 23.0 °F 80% 30.25 in 10.0 mi WNW 8.1 mph - N/A   Clear
8:53 AM 34.0 °F 25.5 °F 24.1 °F 67% 30.32 in 10.0 mi NNW 11.5 mph - N/A   Clear
9:53 AM 37.4 °F 28.9 °F 21.2 °F 52% 30.26 in 10.0 mi North 13.8 mph - N/A   Clear
10:53 AM 39.9 °F 31.8 °F 21.0 °F 47% 30.32 in 10.0 mi NNW 15.0 mph 21.9 mph N/A   Clear
11:53 AM 43.0 °F 35.7 °F 19.9 °F 40% 30.30 in 10.0 mi NNW 15.0 mph - N/A   Mostly Cloudy
12:53 PM 43.0 °F 35.4 °F 19.0 °F 38% 30.28 in 10.0 mi NNW 16.1 mph - N/A   Overcast
1:53 PM 45.0 °F 37.6 °F 16.0 °F 31% 30.26 in 10.0 mi NNW 17.3 mph 24.2 mph N/A   Overcast
2:53 PM 45.0 °F 38.2 °F 17.1 °F 33% 30.26 in 10.0 mi NNW 15.0 mph - N/A   Mostly Cloudy
3:53 PM 44.1 °F 37.7 °F 18.0 °F 35% 30.26 in 10.0 mi NNW 12.7 mph - N/A   Mostly Cloudy
4:53 PM 42.1 °F 35.2 °F 21.9 °F 45% 30.29 in 10.0 mi NW 12.7 mph - N/A   Mostly Cloudy
5:53 PM 37.9 °F 32.1 °F 24.1 °F 57% 30.31 in 10.0 mi WNW 8.1 mph - N/A   Mostly Cloudy
6:53 PM 33.8 °F 27.0 °F 24.8 °F 70% 30.23 in 10.0 mi NW 8.1 mph - N/A   Clear
7:53 PM 28.9 °F 22.8 °F 23.0 °F 78% 30.32 in 10.0 mi WNW 5.8 mph - N/A   Overcast
8:53 PM 32.0 °F - 25.0 °F 75% 30.28 in 10.0 mi Calm Calm - N/A   Overcast
9:53 PM 32.0 °F 28.7 °F 26.1 °F 79% 30.28 in 10.0 mi West 3.5 mph - N/A   Overcast
10:53 PM 33.1 °F - 27.0 °F 78% 30.26 in 10.0 mi Calm Calm - N/A   Overcast
11:53 PM 35.1 °F - 28.0 °F 76% 30.23 in 10.0 mi Calm Calm - N/A   Overcast